QPF
0.00 0.00 0.00 0.00 0.00 0.00 0.00 0.00 0.00 0.00 0.00 0.06 0.19 0.19 0.02 0.00 0.00 0.00 0.00 0.00 0.00 0.00 0.00 0.00 0.00 0.00 0.00 0.00 0.00 0.00 0.00 0.00 0.00 0.00 0.00 0.00 0.00 0.00 0.00 0.00 0.00 0.00 0.00
0.00 0.00 0.00 0.00 0.00 0.00 0.00 0.00 0.00 0.01 0.12 0.37 0.31 0.20 0.07 0.03 0.01 0.00 0.00 0.00 0.00 0.00 0.00 0.00 0.00 0.00 0.00 0.00 0.00 0.00 0.00 0.00 0.00 0.00 0.00 0.00 0.00 0.00 0.00 0.00 0.00 0.00 0.00
0.00 0.00 0.00 0.00 0.00 0.00 0.00 0.00 0.00 0.09 0.29 0.35 0.28 0.20 0.12 0.04 0.00 0.00 0.00 0.00 0.00 0.00 0.00 0.00 0.00 0.00 0.00 0.00 0.00 0.00 0.00 0.00 0.00 0.00 0.00 0.00 0.00 0.00 0.00 0.00 0.00 0.00 0.00
0.00 0.00 0.00 0.00 0.00 0.00 0.00 0.00 0.00 0.09 0.22 0.24 0.15 0.09 0.09 0.00 0.01 0.01 0.00 0.00 0.00 0.00 0.00 0.00 0.00 0.00 0.00 0.00 0.00 0.00 0.00 0.00 0.00 0.00 0.00 0.00 0.00 0.00 0.00 0.00 0.00 0.00 0.00
0.00 0.00 0.00 0.00 0.00 0.00 0.00 0.00 0.00 0.03 0.10 0.06 0.08 0.07 0.04 0.02 0.00 0.01 0.01 0.01 0.00 0.00 0.00 0.00 0.00 0.00 0.00 0.00 0.00 0.00 0.00 0.00 0.00 0.00 0.00 0.00 0.00 0.00 0.00 0.00 0.00 0.00 0.00
0.00 0.00 0.00 0.00 0.00 0.00 0.00 0.00 0.00 0.00 0.12 0.18 0.14 0.14 0.13 0.08 0.00 0.00 0.00 0.00 0.00 0.00 0.00 0.00 0.00 0.00 0.00 0.00 0.00 0.00 0.00 0.00 0.00 0.00 0.00 0.00 0.00 0.00 0.00 0.00 0.00 0.00 0.00
0.00 0.00 0.00 0.00 0.00 0.00 0.00 0.00 0.00 0.00 0.30 0.21 0.11 0.18 0.07 0.03 0.00 0.00 0.00 0.00 0.00 0.00 0.00 0.00 0.00 0.00 0.00 0.00 0.00 0.00 0.00 0.00 0.00 0.00 0.00 0.00 0.00 0.00 0.00 0.00 0.00 0.00 0.00
0.00 0.00 0.00 0.00 0.00 0.00 0.00 0.00 0.00 0.05 0.21 0.20 0.18 0.20 0.03 0.00 0.00 0.00 0.00 0.00 0.00 0.00 0.00 0.00 0.00 0.00 0.00 0.00 0.00 0.00 0.00 0.00 0.00 0.00 0.00 0.00 0.00 0.00 0.00 0.00 0.00 0.00 0.00
0.00 0.00 0.00 0.00 0.00 0.00 0.00 0.00 0.01 0.07 0.11 0.24 0.24 0.15 0.05 0.00 0.00 0.00 0.00 0.00 0.00 0.00 0.00 0.00 0.00 0.00 0.00 0.00 0.00 0.00 0.00 0.00 0.00 0.00 0.00 0.00 0.00 0.00 0.00 0.00 0.00 0.00 0.00
0.00 0.00 0.00 0.00 0.00 0.00 0.00 0.01 0.12 0.22 0.15 0.18 0.19 0.13 0.00 0.00 0.00 0.00 0.00 0.00 0.00 0.00 0.00 0.00 0.00 0.00 0.00 0.00 0.00 0.00 0.00 0.00 0.00 0.00 0.00 0.00 0.00 0.00 0.00 0.00 0.00 0.00 0.00
0.00 0.00 0.00 0.00 0.00 0.01 0.03 0.06 0.21 0.12 0.08 0.18 0.19 0.09 0.00 0.00 0.00 0.00 0.00 0.00 0.00 0.00 0.00 0.00 0.00 0.00 0.00 0.00 0.00 0.00 0.00 0.00 0.00 0.00 0.00 0.00 0.00 0.00 0.00 0.00 0.00 0.00 0.00
0.00 0.01 0.03 0.02 0.03 0.05 0.09 0.15 0.19 0.13 0.13 0.12 0.12 0.03 0.00 0.00 0.00 0.00 0.00 0.00 0.00 0.00 0.00 0.00 0.00 0.00 0.00 0.00 0.00 0.00 0.00 0.00 0.00 0.00 0.00 0.00 0.00 0.00 0.00 0.00 0.00 0.00 0.00
0.01 0.03 0.09 0.08 0.06 0.08 0.11 0.13 0.12 0.18 0.12 0.10 0.02 0.00 0.00 0.00 0.00 0.00 0.00 0.00 0.00 0.00 0.00 0.00 0.00 0.00 0.00 0.00 0.00 0.00 0.00 0.00 0.00 0.00 0.00 0.00 0.00 0.00 0.00 0.00 0.00 0.00 0.00
0.03 0.07 0.12 0.14 0.10 0.15 0.13 0.17 0.05 0.09 0.02 0.02 0.00 0.00 0.00 0.00 0.00 0.00 0.00 0.00 0.00 0.00 0.00 0.00 0.00 0.00 0.00 0.00 0.00 0.00 0.00 0.00 0.00 0.00 0.00 0.00 0.00 0.00 0.00 0.00 0.00 0.00 0.00
0.01 0.02 0.02 0.03 0.03 0.03 0.02 0.01 0.00 0.00 0.00 0.00 0.00 0.00 0.00 0.00 0.00 0.00 0.00 0.00 0.00 0.00 0.00 0.00 0.00 0.00 0.00 0.00 0.00 0.00 0.00 0.00 0.00 0.00 0.00 0.00 0.00 0.00 0.00 0.00 0.00 0.00 0.00
0.00 0.00 0.00 0.00 0.00 0.00 0.00 0.00 0.00 0.00 0.00 0.00 0.00 0.00 0.00 0.00 0.00 0.00 0.00 0.00 0.00 0.00 0.00 0.00 0.00 0.00 0.00 0.00 0.00 0.00 0.00 0.00 0.00 0.00 0.00 0.00 0.00 0.00 0.00 0.00 0.00 0.00 0.00
0.00 0.00 0.00 0.00 0.00 0.00 0.00 0.00 0.00 0.00 0.00 0.00 0.00 0.00 0.00 0.00 0.00 0.00 0.00 0.00 0.00 0.00 0.00 0.00 0.00 0.00 0.00 0.00 0.00 0.00 0.00 0.00 0.00 0.00 0.00 0.00 0.00 0.00 0.00 0.00 0.00 0.00 0.00
0.00 0.03 0.01 0.02 0.01 0.00 0.00 0.00 0.00 0.00 0.00 0.00 0.00 0.00 0.00 0.02 0.01 0.00 0.00 0.00 0.00 0.00 0.00 0.00 0.00 0.00 0.00 0.00 0.00 0.00 0.00 0.00 0.00 0.00 0.00 0.00 0.00 0.00 0.00 0.00 0.00 0.00 0.00
0.04 0.08 0.03 0.01 0.01 0.00 0.00 0.00 0.00 0.00 0.00 0.00 0.00 0.03 0.03 0.01 0.00 0.00 0.00 0.00 0.00 0.00 0.00 0.00 0.00 0.00 0.00 0.00 0.00 0.00 0.00 0.00 0.00 0.00 0.00 0.00 0.00 0.00 0.00 0.00 0.00 0.00 0.00
0.18 0.05 0.03 0.05 0.05 0.01 0.00 0.00 0.00 0.01 0.00 0.02 0.04 0.10 0.06 0.03 0.00 0.00 0.00 0.00 0.00 0.00 0.00 0.00 0.00 0.00 0.00 0.00 0.00 0.00 0.00 0.00 0.00 0.00 0.00 0.00 0.00 0.00 0.00 0.00 0.00 0.00 0.00
0.08 0.06 0.03 0.02 0.02 0.01 0.00 0.01 0.01 0.05 0.08 0.07 0.03 0.07 0.10 0.09 0.01 0.00 0.00 0.00 0.00 0.00 0.00 0.00 0.00 0.00 0.00 0.00 0.00 0.00 0.00 0.00 0.00 0.00 0.00 0.00 0.00 0.00 0.00 0.00 0.00 0.00 0.00
0.00 0.00 0.01 0.00 0.00 0.00 0.00 0.03 0.05 0.07 0.17 0.19 0.04 0.03 0.04 0.05 0.01 0.00 0.00 0.00 0.00 0.00 0.00 0.00 0.00 0.00 0.00 0.00 0.00 0.00 0.00 0.00 0.00 0.00 0.00 0.00 0.00 0.00 0.00 0.00 0.00 0.00 0.00
0.00 0.00 0.01 0.00 0.00 0.00 0.01 0.02 0.04 0.10 0.09 0.18 0.08 0.01 0.01 0.03 0.00 0.00 0.00 0.00 0.00 0.00 0.00 0.00 0.00 0.00 0.00 0.00 0.00 0.00 0.00 0.00 0.00 0.00 0.00 0.00 0.00 0.00 0.00 0.00 0.00 0.00 0.00
0.00 0.00 0.00 0.00 0.00 0.00 0.01 0.03 0.04 0.05 0.03 0.13 0.05 0.01 0.00 0.00 0.00 0.00 0.00 0.00 0.00 0.00 0.00 0.00 0.00 0.00 0.00 0.00 0.00 0.00 0.00 0.00 0.00 0.00 0.00 0.00 0.00 0.00 0.00 0.00 0.00 0.00 0.00
0.00 0.00 0.00 0.00 0.00 0.00 0.00 0.00 0.02 0.04 0.04 0.10 0.09 0.01 0.00 0.00 0.00 0.00 0.00 0.00 0.00 0.00 0.00 0.00 0.00 0.00 0.00 0.00 0.00 0.00 0.00 0.00 0.00 0.00 0.00 0.00 0.00 0.00 0.00 0.00 0.00 0.00 0.00
0.00 0.00 0.00 0.00 0.00 0.00 0.00 0.01 0.00 0.01 0.04 0.10 0.06 0.00 0.00 0.00 0.00 0.00 0.00 0.00 0.00 0.00 0.00 0.00 0.00 0.00 0.00 0.00 0.00 0.00 0.00 0.00 0.00 0.00 0.00 0.00 0.00 0.00 0.00 0.00 0.00 0.00 0.00
MSLP
1009.65 1009.95 1010.37 1010.76 1011.21 1011.85 1012.22 1012.65 1013.09 1013.40 1014.02 1014.73 1015.38 1016.35 1016.72 1016.74 1016.76 1017.08 1017.87 1018.29 1018.58 1018.50 1018.48 1018.85 1019.11 1019.36 1019.07 1018.92 1019.02 1018.77 1018.75 1018.89 1019.76 1020.15 1019.89 1020.05 1019.97 1019.91 1019.75 1019.53 1019.22 1019.13 1018.98
1008.51 1009.20 1009.58 1010.08 1010.71 1011.19 1011.69 1012.05 1012.50 1013.35 1014.60 1015.55 1016.19 1017.72 1017.79 1016.70 1016.23 1016.58 1017.42 1017.97 1018.29 1019.04 1018.81 1018.76 1018.92 1018.91 1019.33 1019.44 1019.53 1019.72 1019.67 1019.54 1020.06 1020.93 1020.72 1020.57 1020.53 1020.44 1020.16 1019.94 1019.70 1019.33 1019.19
1007.96 1008.51 1009.02 1009.51 1010.15 1010.63 1011.12 1011.55 1012.30 1013.45 1014.22 1014.93 1015.56 1016.77 1016.87 1016.51 1015.80 1016.17 1016.25 1016.95 1017.49 1018.57 1018.64 1018.69 1018.83 1018.93 1019.40 1019.57 1019.73 1019.99 1020.04 1019.86 1019.95 1020.57 1021.09 1020.80 1020.49 1020.56 1020.19 1020.09 1019.73 1019.39 1018.91
1007.22 1007.85 1008.37 1008.80 1009.18 1009.73 1010.42 1011.20 1011.95 1013.01 1013.84 1014.17 1015.08 1014.33 1013.77 1014.68 1015.82 1015.97 1016.14 1016.64 1017.25 1018.00 1018.37 1018.47 1018.73 1018.98 1019.54 1019.75 1019.86 1019.88 1020.19 1020.52 1020.46 1020.54 1021.14 1021.30 1021.14 1020.93 1020.87 1020.88 1020.48 1019.90 1019.56
1006.58 1007.18 1007.41 1007.94 1008.47 1009.19 1010.31 1010.99 1011.83 1012.30 1013.22 1014.03 1014.07 1014.02 1014.41 1014.70 1015.05 1015.60 1016.11 1016.70 1017.45 1018.03 1018.12 1018.46 1018.73 1019.01 1019.30 1019.50 1019.65 1019.84 1020.39 1020.85 1020.93 1021.12 1021.50 1021.47 1021.33 1021.23 1021.23 1021.21 1021.12 1020.55 1019.95
1005.96 1006.23 1006.86 1007.40 1007.90 1008.80 1009.92 1010.40 1010.95 1011.96 1012.59 1012.63 1013.30 1013.64 1015.14 1015.03 1014.84 1015.21 1015.89 1016.59 1017.26 1017.84 1018.31 1018.17 1018.51 1018.77 1019.30 1019.62 1019.43 1019.73 1020.21 1020.63 1020.65 1020.95 1021.28 1021.52 1021.27 1021.10 1021.15 1021.19 1021.07 1020.97 1020.69
1005.30 1005.79 1006.24 1006.82 1007.50 1008.33 1009.02 1009.81 1010.73 1011.77 1012.31 1012.93 1013.52 1014.33 1014.29 1014.34 1014.63 1015.32 1015.77 1016.38 1016.85 1017.39 1017.99 1018.26 1018.41 1018.82 1019.21 1019.26 1019.54 1019.91 1020.34 1020.40 1020.32 1020.59 1020.94 1021.07 1020.92 1020.72 1020.67 1020.95 1020.96 1020.94 1020.85
1005.05 1005.43 1005.93 1006.60 1007.27 1007.93 1008.81 1009.72 1010.55 1011.44 1011.94 1012.62 1013.08 1013.14 1013.63 1013.88 1014.30 1015.00 1015.77 1016.42 1016.81 1017.09 1017.65 1018.34 1018.39 1018.67 1018.90 1019.00 1019.35 1020.03 1020.19 1020.28 1020.23 1020.28 1020.41 1020.22 1020.26 1020.44 1020.57 1020.34 1020.30 1020.32 1020.16
1004.87 1005.38 1005.92 1006.45 1007.15 1007.86 1008.65 1009.46 1010.11 1011.03 1011.92 1012.39 1012.93 1013.06 1013.36 1014.11 1014.23 1014.80 1015.55 1016.52 1016.93 1017.08 1017.66 1017.90 1018.15 1018.43 1018.68 1019.05 1019.46 1020.16 1020.15 1020.01 1019.52 1019.60 1019.66 1019.76 1019.80 1019.49 1019.67 1020.11 1020.32 1020.50 1020.17
1004.97 1005.43 1005.91 1006.33 1006.87 1007.80 1008.54 1009.26 1009.95 1011.01 1011.50 1011.93 1012.83 1012.91 1013.26 1013.84 1014.26 1014.76 1015.51 1016.12 1017.05 1017.25 1017.60 1017.91 1017.87 1018.13 1018.61 1019.01 1019.32 1019.90 1020.19 1020.03 1019.87 1019.75 1019.81 1019.69 1019.38 1019.13 1018.86 1019.33 1019.66 1020.00 1020.04
1005.39 1005.92 1006.56 1007.03 1007.40 1007.98 1008.87 1009.50 1010.15 1011.19 1011.84 1012.33 1012.74 1012.86 1013.31 1013.79 1014.38 1014.81 1015.35 1015.94 1016.73 1017.64 1017.79 1017.97 1017.97 1018.27 1018.58 1018.97 1019.20 1019.60 1019.72 1019.49 1019.57 1019.79 1019.81 1019.57 1019.32 1019.23 1018.89 1019.14 1019.23 1019.36 1019.55
1006.23 1006.63 1007.19 1007.79 1008.28 1008.85 1009.45 1010.04 1010.30 1010.93 1011.30 1012.12 1012.86 1013.65 1013.85 1014.20 1014.49 1014.98 1015.39 1015.88 1016.27 1017.05 1017.49 1017.49 1017.74 1018.19 1018.53 1018.79 1019.05 1019.12 1019.26 1019.38 1019.66 1019.69 1019.90 1019.73 1019.44 1019.17 1019.04 1019.15 1018.88 1018.86 1018.79
1007.15 1007.61 1007.80 1008.24 1008.57 1009.11 1009.71 1010.43 1010.92 1011.52 1011.91 1012.10 1012.78 1013.44 1014.08 1014.47 1014.76 1014.96 1015.30 1015.76 1016.10 1016.72 1016.97 1017.23 1017.60 1017.91 1018.15 1018.44 1018.62 1018.83 1019.17 1019.36 1019.59 1019.67 1019.53 1019.41 1019.08 1018.76 1018.87 1019.21 1018.92 1018.85 1018.82
1007.76 1008.17 1008.44 1008.66 1009.05 1009.46 1009.66 1010.37 1010.84 1011.30 1011.79 1012.28 1012.99 1013.49 1013.85 1014.49 1014.99 1015.27 1015.49 1015.75 1016.04 1016.46 1016.89 1017.12 1017.49 1017.71 1017.93 1018.22 1018.49 1018.63 1018.79 1018.65 1018.84 1018.88 1018.89 1018.71 1018.65 1018.68 1018.97 1018.97 1019.06 1019.04 1019.17
1008.20 1008.45 1008.81 1009.20 1009.49 1009.89 1010.36 1010.75 1010.99 1010.86 1011.12 1011.81 1012.44 1013.05 1013.51 1014.10 1014.29 1014.69 1015.20 1015.75 1015.94 1016.23 1016.87 1017.41 1017.73 1018.07 1018.39 1018.45 1018.44 1018.31 1017.95 1017.90 1018.11 1018.14 1018.35 1018.44 1018.59 1018.73 1018.84 1018.77 1018.93 1019.15 1019.19
1008.42 1008.65 1009.02 1009.59 1010.14 1010.34 1010.47 1010.96 1010.93 1010.78 1010.99 1011.32 1011.75 1012.32 1013.05 1013.29 1013.79 1014.47 1015.04 1015.39 1015.70 1016.04 1017.05 1017.56 1017.83 1018.06 1018.27 1018.19 1018.24 1018.01 1017.72 1017.52 1017.61 1017.67 1017.96 1018.30 1018.60 1018.78 1018.80 1018.64 1018.61 1018.72 1018.84
1008.27 1008.55 1008.90 1009.44 1010.07 1010.57 1010.65 1010.61 1010.90 1011.19 1011.06 1011.36 1011.71 1012.09 1012.54 1012.96 1013.54 1014.23 1014.82 1015.18 1015.65 1016.18 1016.75 1017.20 1017.54 1017.64 1017.84 1017.93 1017.81 1017.87 1017.77 1017.50 1017.41 1017.62 1017.89 1018.10 1018.38 1018.63 1018.65 1018.47 1018.35 1018.25 1018.22
1008.57 1008.72 1008.95 1009.23 1009.41 1010.14 1010.52 1010.58 1010.52 1010.89 1011.28 1011.91 1012.29 1012.62 1012.65 1013.03 1013.46 1014.00 1014.60 1015.34 1016.21 1016.32 1016.53 1016.97 1017.19 1017.41 1017.46 1017.49 1017.61 1017.63 1017.59 1017.63 1017.67 1017.76 1017.95 1018.20 1018.38 1018.45 1018.31 1018.18 1018.00 1017.87 1018.04
1008.14 1008.37 1008.13 1008.64 1009.21 1009.62 1010.04 1010.24 1010.57 1010.77 1011.07 1011.77 1012.41 1012.83 1013.20 1013.52 1013.90 1014.22 1014.62 1015.07 1015.66 1015.93 1016.36 1016.68 1016.84 1016.92 1016.95 1016.99 1017.26 1017.47 1017.52 1017.60 1017.71 1017.94 1018.14 1018.26 1018.24 1018.13 1017.99 1017.78 1017.63 1017.83 1017.91
1007.39 1007.87 1007.89 1008.21 1008.65 1009.14 1009.63 1009.91 1010.46 1010.79 1011.12 1011.64 1012.24 1012.66 1013.48 1014.00 1014.41 1014.52 1014.83 1015.01 1015.42 1015.62 1015.88 1016.11 1016.06 1016.19 1016.38 1016.79 1017.26 1017.47 1017.64 1017.73 1017.89 1017.99 1018.12 1018.17 1018.10 1018.02 1017.79 1017.50 1017.44 1017.58 1017.59
1007.18 1007.55 1007.91 1007.99 1008.29 1008.60 1008.88 1009.40 1010.02 1010.44 1010.96 1011.49 1011.87 1012.33 1012.74 1013.28 1013.67 1014.08 1014.46 1014.78 1015.05 1015.23 1015.36 1015.65 1015.88 1016.08 1016.44 1016.90 1017.24 1017.47 1017.62 1017.77 1017.81 1017.90 1018.09 1018.15 1018.11 1017.98 1017.53 1017.24 1017.30 1017.38 1017.50
1007.09 1007.23 1007.61 1007.99 1008.24 1008.51 1008.68 1008.85 1009.30 1009.92 1010.46 1011.25 1011.78 1012.20 1012.94 1012.92 1013.23 1013.57 1013.84 1014.29 1014.58 1014.73 1015.07 1015.50 1015.92 1016.17 1016.46 1016.81 1017.17 1017.43 1017.59 1017.71 1017.77 1017.86 1018.00 1018.04 1017.99 1017.81 1017.48 1017.29 1017.24 1017.28 1017.28
1007.20 1007.45 1007.68 1008.02 1008.17 1008.22 1008.38 1008.38 1008.79 1009.35 1010.00 1010.63 1011.30 1011.86 1012.63 1012.72 1012.83 1013.03 1013.44 1013.80 1014.16 1014.61 1015.05 1015.52 1016.02 1016.52 1016.76 1017.00 1017.11 1017.24 1017.49 1017.61 1017.61 1017.66 1017.81 1017.90 1017.91 1017.81 1017.64 1017.49 1017.47 1017.35 1017.14
1006.98 1007.38 1007.56 1007.88 1008.08 1008.12 1008.14 1008.18 1008.29 1008.62 1009.36 1010.18 1010.72 1011.31 1011.55 1011.92 1012.27 1012.65 1013.12 1013.56 1014.04 1014.74 1015.15 1015.62 1016.04 1016.52 1016.95 1017.30 1017.37 1017.46 1017.54 1017.49 1017.43 1017.49 1017.56 1017.77 1017.77 1017.68 1017.59 1017.52 1017.43 1017.23 1016.90
1007.24 1007.30 1007.29 1007.36 1007.67 1007.95 1008.06 1007.97 1007.99 1008.44 1009.01 1009.55 1010.24 1010.73 1011.23 1011.62 1012.22 1012.51 1012.93 1013.47 1014.16 1014.82 1015.51 1015.91 1016.32 1016.67 1017.02 1017.33 1017.50 1017.63 1017.77 1017.65 1017.52 1017.67 1017.59 1017.62 1017.78 1017.78 1017.63 1017.43 1017.19 1016.81 1016.50
1007.09 1007.18 1007.24 1007.35 1007.71 1007.80 1007.71 1007.82 1007.99 1008.33 1008.78 1009.42 1009.94 1010.24 1010.79 1011.44 1011.89 1012.50 1012.98 1013.40 1014.25 1015.09 1015.61 1016.17 1016.65 1016.99 1017.19 1017.42 1017.50 1017.69 1017.79 1017.73 1017.66 1017.85 1017.87 1017.81 1017.74 1017.56 1017.36 1017.08 1016.67 1016.31 1015.88
Thickness
5835 5833 5831 5829 5825 5819 5815 5812 5807 5804 5797 5788 5779 5769 5766 5765 5767 5763 5749 5741 5736 5738 5738 5732 5729 5726 5727 5725 5722 5723 5718 5713 5704 5700 5701 5700 5699 5697 5697 5697 5696 5696 5698
5844 5839 5836 5832 5828 5823 5818 5817 5813 5802 5790 5782 5771 5756 5749 5762 5768 5755 5739 5736 5732 5721 5726 5726 5724 5724 5718 5715 5712 5708 5706 5706 5699 5689 5688 5687 5685 5684 5684 5685 5686 5685 5686
5848 5844 5839 5835 5829 5826 5822 5819 5812 5800 5795 5786 5778 5761 5744 5755 5765 5756 5750 5737 5731 5720 5719 5718 5717 5717 5711 5707 5704 5700 5698 5700 5699 5689 5680 5680 5680 5676 5680 5681 5682 5683 5683
5854 5848 5843 5840 5838 5834 5827 5819 5813 5802 5794 5789 5773 5779 5778 5771 5759 5752 5745 5730 5726 5719 5713 5712 5710 5708 5702 5697 5694 5693 5689 5685 5684 5683 5675 5671 5670 5668 5666 5664 5666 5669 5669
5857 5851 5850 5847 5843 5836 5823 5817 5811 5805 5795 5785 5780 5775 5769 5767 5764 5751 5740 5731 5720 5710 5706 5705 5703 5701 5697 5693 5688 5688 5682 5675 5670 5668 5664 5661 5661 5659 5658 5656 5653 5656 5657
5860 5857 5855 5850 5846 5836 5823 5819 5814 5804 5797 5793 5784 5777 5761 5761 5760 5753 5742 5730 5719 5709 5701 5703 5699 5698 5691 5687 5688 5682 5675 5670 5667 5663 5659 5656 5655 5655 5652 5650 5646 5644 5641
5862 5860 5856 5853 5846 5836 5828 5820 5811 5802 5796 5788 5780 5767 5763 5765 5758 5747 5741 5731 5722 5713 5704 5700 5698 5693 5687 5684 5678 5674 5669 5667 5665 5661 5655 5651 5650 5651 5649 5642 5638 5633 5630
5859 5858 5855 5850 5843 5836 5825 5815 5808 5800 5795 5788 5782 5778 5770 5766 5758 5748 5737 5727 5719 5714 5706 5696 5695 5690 5686 5681 5675 5666 5662 5659 5657 5655 5652 5652 5648 5644 5640 5638 5634 5630 5626
5856 5853 5850 5845 5837 5830 5822 5813 5806 5798 5790 5784 5778 5774 5765 5760 5756 5745 5735 5722 5715 5711 5702 5698 5694 5689 5683 5676 5671 5660 5658 5656 5656 5653 5650 5647 5643 5642 5637 5631 5625 5622 5621
5849 5846 5843 5840 5834 5825 5818 5810 5802 5792 5788 5782 5773 5768 5759 5757 5749 5739 5730 5722 5710 5705 5696 5690 5691 5686 5681 5674 5664 5658 5653 5651 5649 5647 5645 5643 5642 5641 5637 5631 5625 5619 5613
5838 5833 5828 5825 5822 5816 5806 5801 5794 5783 5776 5771 5763 5759 5756 5750 5740 5733 5725 5717 5705 5692 5689 5686 5685 5680 5674 5666 5660 5653 5652 5651 5647 5641 5638 5638 5638 5633 5630 5624 5620 5615 5609
5823 5818 5812 5808 5804 5800 5793 5788 5786 5781 5775 5763 5753 5745 5743 5737 5730 5724 5717 5709 5703 5693 5688 5685 5680 5671 5665 5661 5656 5654 5651 5647 5640 5639 5633 5632 5630 5628 5624 5618 5617 5612 5607
5803 5798 5797 5796 5793 5789 5782 5776 5772 5767 5762 5758 5750 5743 5734 5728 5721 5717 5712 5704 5700 5691 5687 5681 5674 5668 5663 5658 5654 5651 5646 5641 5636 5633 5629 5626 5625 5625 5619 5611 5609 5605 5599
5786 5783 5782 5780 5778 5776 5775 5770 5765 5759 5754 5747 5739 5733 5728 5719 5713 5707 5703 5699 5694 5688 5681 5675 5668 5665 5660 5655 5651 5647 5644 5641 5636 5633 5628 5626 5624 5619 5611 5606 5599 5594 5587
5773 5771 5768 5766 5764 5761 5758 5756 5755 5755 5751 5743 5735 5730 5724 5715 5712 5706 5700 5693 5689 5684 5675 5667 5661 5655 5651 5647 5645 5643 5643 5640 5636 5632 5628 5623 5617 5612 5606 5599 5592 5585 5579
5760 5759 5755 5751 5748 5746 5745 5742 5740 5743 5742 5739 5733 5728 5719 5716 5709 5701 5693 5689 5685 5679 5669 5659 5653 5649 5645 5643 5640 5640 5639 5639 5633 5629 5625 5618 5611 5603 5596 5591 5586 5582 5575
5752 5750 5748 5744 5739 5734 5734 5735 5733 5730 5728 5725 5723 5720 5714 5710 5702 5694 5688 5683 5676 5670 5662 5655 5650 5647 5643 5639 5637 5634 5633 5631 5628 5623 5617 5611 5603 5595 5590 5585 5581 5578 5573
5735 5736 5737 5734 5734 5727 5724 5724 5725 5723 5719 5714 5707 5704 5702 5698 5693 5687 5681 5674 5666 5662 5656 5651 5648 5642 5640 5636 5633 5630 5626 5622 5619 5614 5608 5600 5594 5588 5583 5580 5577 5572 5565
5729 5727 5734 5731 5726 5723 5719 5717 5713 5712 5710 5703 5697 5692 5687 5684 5679 5676 5673 5670 5663 5658 5651 5648 5644 5640 5636 5633 5629 5624 5620 5616 5611 5604 5597 5591 5586 5582 5580 5575 5570 5563 5558
5720 5723 5725 5724 5720 5715 5712 5708 5702 5699 5697 5693 5689 5686 5677 5673 5668 5666 5665 5663 5659 5654 5650 5647 5644 5639 5635 5629 5622 5617 5612 5607 5600 5595 5589 5583 5578 5573 5571 5568 5562 5556 5552
5723 5719 5718 5716 5712 5710 5708 5703 5697 5693 5688 5684 5682 5678 5676 5671 5667 5663 5662 5658 5654 5651 5648 5643 5637 5633 5628 5621 5614 5610 5605 5600 5594 5588 5581 5574 5568 5563 5562 5558 5553 5549 5541
5719 5717 5714 5710 5706 5703 5701 5700 5697 5692 5684 5677 5675 5672 5663 5664 5661 5660 5660 5655 5651 5648 5644 5637 5632 5627 5622 5615 5609 5603 5598 5592 5585 5578 5571 5565 5559 5554 5552 5549 5545 5540 5535
5710 5707 5705 5701 5698 5697 5695 5697 5693 5689 5681 5674 5669 5666 5659 5659 5660 5658 5655 5653 5648 5643 5636 5630 5624 5618 5613 5607 5602 5596 5589 5583 5576 5570 5563 5556 5550 5545 5542 5539 5535 5530 5527
5706 5701 5697 5693 5691 5691 5691 5690 5689 5686 5679 5671 5666 5661 5660 5661 5659 5655 5652 5648 5643 5635 5629 5623 5618 5613 5606 5599 5593 5587 5580 5575 5569 5562 5555 5548 5543 5539 5535 5531 5527 5525 5524
5699 5698 5696 5694 5689 5685 5684 5685 5685 5683 5678 5670 5664 5661 5658 5658 5654 5650 5646 5642 5636 5629 5621 5617 5611 5605 5598 5591 5585 5579 5574 5568 5561 5554 5547 5541 5536 5532 5529 5526 5523 5522 5522
5698 5694 5691 5688 5682 5680 5682 5681 5680 5678 5673 5665 5660 5658 5657 5653 5651 5646 5642 5638 5630 5623 5618 5610 5603 5597 5590 5583 5578 5573 5567 5560 5554 5548 5542 5536 5532 5529 5526 5524 5524 5522 5523